Flag for U.S.A. Weather past 2 weeks in Avalon (Santa Catalina Island), California, U.S.A.

Now
54 °F

Fog.


Feels Like: 53 °F
Forecast: 55 / 67 °F
Wind: 5 mph from North

Location: Catalina Airport


UV Index: 5 (Moderate)

Visibility: 1 mi


Pressure: 29.93 "Hg

Humidity: 90%

Dew point: 51 °F

Location of Avalon (Santa Catalina Island)Location

Historic Weather in Avalon (Santa Catalina Island)

°F

Avalon (Santa Catalina Island) temperature yesterday

Maximum temperature yesterday: 62 °F (at 12:51 PM)
Minimum temperature yesterday: 50 °F (at 1:57 AM)
Average temperature yesterday: 55 °F

Past Weeks' High & Low Weather Summary

 TemperatureHumidityPressure
High82 °F (Apr 7, 12:51 PM)100% (Apr 14, 6:51 AM)30.09 "Hg (Apr 14, 6:51 AM)
Low47 °F (Apr 5, 1:51 AM)4% (Apr 11, 2:51 AM)29.80 "Hg (Apr 16, 4:51 PM)
Average61 °F55%29.96 "Hg
* Reported Apr 3 7:51 PM — Apr 18 7:58 PM, Avalon (Santa Catalina Island), Weather by CustomWeather, © 2014

Note: Actual official high and low records may vary slightly from our data, if they occured in-between our weather recording intervals... More about our weather records

Advertising

Historic Weather Conditions — Data for Previous 24 hours

 ConditionsComfort  
Time TempWeatherWind HumidityBarometerVisibility
7:58 PM
Apr 18
54 °FFog.5 mph90%29.93 "Hg1 mi
6:51 PM56 °FPartly sunny.7 mph84%29.90 "Hg10 mi
5:51 PM58 °FPassing clouds.5 mph75%29.89 "Hg10 mi
4:51 PM57 °FMore clouds than sun.8 mph78%29.89 "Hg10 mi
3:51 PM57 °FOvercast.9 mph81%29.89 "Hg10 mi
2:51 PM58 °FOvercast.6 mph78%29.90 "Hg10 mi
1:51 PM58 °FOvercast.8 mph72%29.91 "Hg10 mi
12:51 PM59 °FOvercast.12 mph72%29.91 "Hg10 mi
11:51 AM60 °FOvercast.10 mph69%29.91 "Hg10 mi
10:51 AM56 °FMostly cloudy.6 mph84%29.93 "Hg9 mi
9:59 AM55 °FFog.6 mph90%29.94 "Hg6 mi
8:51 AM54 °FFog.3 mph93%29.92 "Hg3 mi
7:51 AM54 °FFog.No wind90%29.91 "Hg6 mi
6:58 AM54 °FMostly cloudy.No wind86%29.90 "Hg7 mi
5:51 AM54 °FOvercast.No wind90%29.86 "Hg9 mi
4:51 AM54 °FPassing clouds.5 mph86%29.85 "Hg10 mi
4:04 AM54 °FOvercast.10 mph90%29.88 "Hg8 mi
3:51 AM54 °FMostly cloudy.9 mph86%29.85 "Hg8 mi
2:51 AM53 °FFog.8 mph93%29.85 "Hg5 mi
1:51 AM53 °FMostly cloudy.9 mph89%29.86 "Hg8 mi
12:51 AM54 °FLow clouds.8 mph86%29.88 "Hg9 mi
11:51 PM
Apr 17
54 °FLow clouds.6 mph86%29.88 "Hg9 mi
10:51 PM54 °FOvercast.8 mph86%29.89 "Hg9 mi
9:51 PM54 °FLow clouds.No wind86%29.91 "Hg7 mi
Weather by CustomWeather, © 2014

See weather overview